Theta_e
302 301 298 299 297 297 296 296 296 296 296 295 296 295 295 294 295 294 294 294 294 294 294 294 294 294 294 294 294 293 294 294 294 294 295 295 296 299 303 307 311 314 316 318 320 320 320 321 321 320 320 320 320 320 320 319 319 320 321 321 320 320 320 320 320 320 320 320 321 321 321 322 322 323 324 324 324 326 328 329 330 331 331 332 333
301 299 297 296 295 295 295 295 295 295 295 295 294 295 294 294 294 294 294 294 294 294 294 293 293 293 293 293 293 293 293 293 294 294 294 295 295 297 300 305 309 313 314 316 318 318 319 319 319 319 319 318 319 320 319 319 319 319 320 320 319 319 318 320 319 319 319 319 320 320 321 321 321 322 322 323 323 324 324 326 327 328 329 330 330
299 297 296 295 294 294 294 294 294 294 295 295 294 294 294 294 294 294 294 294 294 294 293 293 292 292 293 293 293 293 293 293 293 294 294 294 295 296 298 302 306 310 313 314 314 314 315 317 317 317 318 319 320 319 318 318 319 320 319 319 318 318 318 318 317 318 317 318 318 318 319 319 320 320 321 321 322 322 323 323 324 325 326 327 328
298 296 296 294 293 293 293 293 294 294 294 294 294 293 293 293 293 293 293 294 293 292 292 292 292 292 292 292 292 293 293 293 293 293 293 294 295 295 297 299 302 306 309 312 312 312 313 313 314 315 317 317 318 317 317 318 318 318 318 317 318 317 316 317 317 317 317 316 316 317 317 318 319 319 320 320 320 320 321 322 323 323 324 324 325
297 296 296 294 293 293 293 294 294 294 294 294 294 293 293 293 293 292 292 292 292 291 291 291 291 291 292 292 292 292 292 293 293 293 293 294 294 294 296 297 298 300 304 307 309 309 310 310 312 313 314 315 316 316 317 317 317 317 316 316 317 316 315 316 315 315 315 315 316 316 317 318 318 318 318 319 319 319 320 320 321 322 323 323 323
297 296 295 293 293 293 293 293 293 293 294 294 293 293 293 293 292 291 291 291 292 292 291 291 291 291 291 291 292 291 292 292 292 292 293 293 293 294 295 296 297 297 299 302 304 305 306 308 309 311 311 313 314 315 315 316 315 315 315 314 314 315 314 315 315 314 314 315 316 315 316 317 318 317 318 317 317 318 319 319 319 320 320 321 322
296 295 294 293 292 292 292 293 293 293 293 293 293 293 293 292 292 291 292 291 292 291 291 291 291 291 291 291 291 291 291 292 292 292 292 292 293 293 294 295 296 296 296 297 299 301 303 305 308 309 309 310 310 311 312 314 314 314 314 314 314 314 314 314 314 314 314 315 315 315 315 315 316 317 316 316 316 317 317 317 318 318 319 320 320
296 295 293 293 292 291 292 292 292 293 293 292 292 292 292 292 291 291 290 291 291 291 291 291 291 290 290 290 291 291 291 291 292 292 291 292 292 293 293 294 295 295 294 294 296 297 298 300 303 306 306 306 307 308 309 311 313 313 314 314 314 313 313 313 313 314 314 314 314 314 314 314 314 315 315 315 315 315 316 316 317 318 318 318 319
295 295 294 292 292 292 291 292 292 292 292 292 292 292 292 291 290 290 291 291 292 291 291 290 290 290 289 290 290 291 291 291 291 291 292 292 291 292 292 293 293 292 292 292 292 293 294 296 298 301 302 303 304 305 306 309 311 312 313 312 312 311 312 312 312 313 313 312 313 313 313 313 313 313 314 314 314 315 315 316 316 316 317 317 318
295 295 294 293 292 292 291 291 292 292 292 291 291 291 291 291 290 290 289 291 290 290 290 290 290 289 289 289 289 290 290 291 291 291 291 291 291 291 291 291 292 292 292 292 291 291 291 292 293 295 297 299 301 302 303 306 309 310 311 311 311 311 311 311 311 311 312 311 311 312 312 312 312 312 312 313 313 313 314 314 314 315 315 316 316
295 295 294 293 292 291 290 291 291 291 291 291 290 290 291 290 290 289 289 289 291 291 290 290 289 288 288 288 289 289 290 290 290 290 290 291 291 290 291 291 291 291 291 291 291 290 290 291 291 292 293 295 298 299 300 303 305 307 310 311 311 310 310 310 311 310 310 310 310 310 311 311 311 312 312 312 312 312 313 313 313 314 314 315 315
295 294 294 293 292 290 290 291 291 291 290 290 290 290 290 289 289 290 289 289 289 289 289 289 288 288 288 288 289 289 289 289 289 290 289 290 290 290 290 290 290 290 290 290 290 290 290 290 290 291 291 292 294 295 296 298 301 304 308 309 310 309 310 309 309 309 309 309 309 309 309 310 310 311 311 311 312 312 312 313 313 313 314 314 314
294 294 294 293 292 291 290 290 291 291 291 291 291 291 290 290 289 290 289 289 288 288 289 290 289 286 287 288 288 290 290 289 289 289 289 289 289 290 289 290 289 289 289 290 290 289 289 289 289 290 290 291 290 291 292 294 297 302 306 307 308 309 309 309 308 308 307 308 308 309 309 309 309 309 310 310 310 310 311 311 312 312 312 312 313
294 294 294 293 292 290 290 289 290 290 291 291 290 290 289 289 289 288 288 289 289 288 288 289 289 289 286 286 286 288 290 288 288 288 289 289 289 290 290 290 289 289 289 289 288 289 288 289 289 289 290 289 289 290 290 291 292 297 303 306 307 308 308 307 307 307 307 307 307 307 307 308 308 308 308 309 309 309 309 310 310 311 311 311 312
294 294 293 293 292 291 290 290 290 290 289 289 289 289 288 288 289 289 287 288 289 288 287 289 291 289 290 288 286 285 287 287 288 287 288 289 289 289 289 289 288 288 288 288 288 288 288 288 288 288 289 289 289 289 289 290 290 292 296 299 302 305 307 307 307 307 306 305 305 305 305 306 306 306 307 307 308 308 308 309 309 310 310 311 311
294 294 293 293 292 291 291 289 289 290 290 289 289 289 288 288 288 289 290 287 288 287 288 286 287 290 289 289 286 287 286 286 287 287 286 287 288 288 288 288 288 288 288 288 287 287 288 288 287 287 288 288 288 289 289 289 289 290 291 294 297 299 302 304 305 305 305 305 304 304 304 304 305 306 306 306 307 307 307 308 309 309 310 310 310
294 293 293 293 293 292 291 290 289 289 290 289 288 289 288 288 289 288 289 290 287 288 287 287 286 286 291 284 285 286 289 288 285 285 285 286 286 287 288 288 288 288 287 287 288 287 287 288 287 287 287 288 288 288 289 289 290 291 292 293 295 295 297 301 303 303 304 304 303 303 303 303 304 304 304 304 305 306 306 307 308 309 309 309 310
294 293 294 293 292 292 291 290 289 289 289 289 289 289 288 288 288 288 289 290 290 287 286 287 286 288 286 287 292 295 289 286 287 286 283 286 286 286 286 286 287 287 287 287 287 287 287 287 287 287 287 287 288 288 288 289 289 291 293 294 295 295 295 297 300 302 303 303 302 303 303 303 303 303 304 303 304 305 306 306 307 307 308 308 309
293 293 293 293 292 292 291 290 290 289 289 289 288 289 288 288 288 288 289 289 289 288 288 286 285 286 286 287 287 285 289 287 287 285 285 285 285 285 285 285 285 286 286 286 286 286 286 286 286 286 286 287 287 287 288 288 288 290 292 293 294 294 294 294 295 297 299 300 301 301 302 303 303 303 303 303 304 304 305 305 306 306 306 307 308
293 293 293 293 292 291 291 290 290 289 289 288 288 289 289 289 288 288 288 288 289 290 288 287 286 286 286 286 285 285 286 287 289 291 290 286 285 284 284 285 284 285 286 286 285 286 286 286 286 286 286 287 287 287 287 288 289 291 291 291 292 293 293 293 293 294 295 297 298 300 301 302 302 302 302 302 302 303 304 304 304 305 305 306 306
293 292 292 292 292 291 291 290 289 289 288 289 288 289 288 288 287 286 286 286 287 289 288 286 288 287 284 283 285 285 285 285 284 288 288 288 285 283 285 284 285 285 285 285 285 285 285 285 285 286 286 286 286 286 287 288 289 290 289 290 290 291 292 292 292 292 293 293 295 297 299 300 300 300 301 301 301 302 303 303 304 304 304 305 305
291 292 292 292 292 291 290 290 290 289 288 288 288 288 288 288 288 287 287 286 286 287 288 288 287 288 288 287 286 284 286 286 286 284 283 287 288 285 285 285 283 285 284 285 285 285 285 285 285 285 285 286 286 286 287 288 288 288 288 288 288 289 290 290 291 291 292 292 293 294 296 297 298 299 299 300 301 301 302 302 302 303 304 304 305
291 291 291 291 291 291 290 290 290 289 288 288 287 287 287 287 287 287 287 286 286 286 287 288 286 286 286 286 287 287 287 285 285 284 287 283 282 283 283 283 285 285 284 283 284 285 284 285 285 285 285 285 285 286 287 288 287 286 285 286 287 288 289 290 290 290 291 292 292 293 293 294 295 296 297 299 300 301 302 302 301 302 303 303 304
290 290 290 290 290 290 290 290 289 289 288 288 288 287 287 287 287 286 286 286 287 285 286 286 285 285 286 286 287 288 289 288 287 286 286 286 286 285 285 283 282 283 284 283 284 284 284 284 285 285 285 285 285 287 287 287 287 285 284 284 285 286 288 289 289 289 290 291 291 292 293 293 293 293 295 297 299 300 300 300 301 301 302 302 303
289 289 289 290 290 289 289 289 289 289 289 288 288 288 287 286 286 286 286 286 285 285 285 286 285 285 285 285 286 286 287 286 286 286 286 286 286 284 282 282 283 284 282 281 282 283 284 284 285 284 284 285 286 286 285 286 286 285 283 282 283 284 285 286 287 288 289 290 290 291 291 291 292 293 294 296 297 298 299 299 300 300 301 301 301
289 289 290 290 289 290 289 289 289 289 289 288 288 287 287 286 286 286 286 286 286 285 285 286 285 286 286 285 284 285 285 284 285 285 284 284 283 284 282 280 280 281 281 281 281 281 283 283 283 283 284 284 285 284 284 284 285 284 282 281 281 282 284 286 287 288 289 289 289 290 290 290 291 292 293 295 296 296 297 298 299 300 300 300 300
290 291 291 289 289 290 289 289 289 288 288 288 287 287 286 286 286 286 286 286 285 285 285 285 284 284 285 285 285 284 284 283 284 285 285 286 286 285 283 281 280 279 279 281 280 280 282 283 283 283 283 284 283 283 283 283 283 283 281 282 281 280 282 284 286 287 288 288 288 289 289 289 290 291 292 292 294 294 295 296 297 298 298 298 298
291 291 290 290 289 289 289 289 288 288 288 287 287 286 286 285 285 285 285 285 285 284 284 284 284 284 284 284 284 284 283 283 284 285 285 286 286 285 286 285 283 281 279 278 279 280 282 281 282 283 283 283 283 283 282 281 282 282 280 281 281 281 281 283 285 287 287 287 288 288 288 289 290 290 291 291 292 292 293 294 294 294 294 294 294
290 290 290 289 289 289 288 288 288 288 287 287 287 286 286 285 285 285 284 285 284 284 284 283 284 284 284 284 284 284 283 283 283 283 284 284 284 284 285 285 285 283 281 279 279 279 280 281 281 281 282 282 282 282 281 281 281 281 282 281 280 280 281 283 284 286 286 287 287 287 288 289 289 290 290 291 291 292 292 293 293 293 293 294 294
289 289 289 288 288 287 288 287 287 287 287 286 286 286 285 285 285 284 285 284 284 284 284 284 283 283 283 283 283 283 283 282 283 283 283 283 283 283 283 283 284 283 283 282 281 280 280 281 281 281 280 280 281 281 281 281 280 281 281 280 280 280 281 282 283 284 285 286 286 286 288 288 288 289 290 290 290 291 292 292 292 292 293 294 294
288 288 288 288 288 287 287 287 287 286 286 286 286 285 285 284 284 284 284 283 283 283 283 283 283 282 282 281 282 282 282 282 282 282 282 282 282 282 282 283 281 283 282 282 281 280 281 279 280 281 280 280 280 280 281 281 280 280 280 279 279 279 280 280 280 282 283 284 285 286 287 287 288 289 289 289 290 290 291 291 291 291 291 292 293
288 288 288 288 287 287 287 287 286 286 286 285 285 285 284 284 284 283 283 283 282 282 282 282 282 282 282 281 281 282 281 282 281 281 281 282 282 282 282 281 281 281 282 281 281 279 279 280 280 279 280 280 279 279 279 279 279 279 279 279 279 279 279 279 279 281 282 283 284 285 286 287 288 288 289 289 289 290 290 290 290 290 291 291 292
287 287 287 287 287 287 287 286 286 285 285 285 285 284 284 283 283 283 282 282 282 282 282 281 281 281 281 281 281 281 281 281 281 281 281 281 281 281 281 281 281 280 280 281 280 278 277 279 279 278 278 278 278 279 278 278 278 279 279 279 279 279 279 279 279 280 281 282 283 285 286 287 288 288 288 288 288 289 289 289 289 290 290 291 291
287 287 287 287 287 287 287 286 286 286 285 285 284 284 283 283 283 283 282 281 281 282 281 280 280 280 281 280 280 280 280 280 280 280 280 280 280 280 280 280 280 279 280 280 280 280 277 277 277 278 277 278 277 278 277 277 277 278 278 278 279 279 279 279 280 280 281 282 283 284 286 287 287 287 287 287 288 288 288 289 289 289 290 290 291
286 287 287 287 287 287 286 286 286 285 285 284 284 283 283 283 283 282 282 281 281 281 281 280 280 280 280 280 280 279 279 279 279 280 280 280 280 279 279 279 279 279 279 280 280 279 278 276 277 276 276 276 276 277 277 277 277 277 277 278 278 279 279 280 280 280 281 282 283 284 285 286 286 286 286 287 287 287 287 288 288 289 289 289 290
285 286 286 287 286 286 286 286 286 285 285 284 284 283 283 283 283 282 282 281 281 282 281 280 280 280 279 279 279 279 279 279 279 279 279 279 279 279 279 279 279 279 279 279 279 279 279 276 275 275 276 275 276 276 276 277 277 277 277 278 279 278 279 280 280 280 281 282 283 284 284 284 284 285 285 286 286 286 287 287 288 288 288 288 288
285 285 285 286 286 286 285 285 285 285 285 284 284 283 283 283 283 283 282 282 281 281 281 281 281 280 279 279 279 279 278 278 278 278 278 278 278 278 278 278 278 278 278 278 278 277 277 276 275 274 275 275 275 276 276 276 276 277 277 277 278 278 279 280 280 280 281 282 282 282 282 283 283 284 284 285 286 286 287 287 287 287 287 287 287
285 285 285 285 285 285 285 286 286 285 285 285 284 284 283 283 283 283 282 282 281 281 281 281 281 280 280 280 280 279 278 278 278 278 278 278 278 278 277 277 277 277 277 277 277 276 276 275 275 273 274 273 274 275 276 276 275 276 276 277 278 278 278 278 279 280 280 280 280 280 281 281 282 283 284 284 285 285 285 286 286 286 286 285 285
285 285 285 284 285 285 285 285 285 285 285 285 284 284 283 283 283 282 282 282 281 281 281 281 281 280 280 280 280 279 278 279 278 278 277 277 277 277 277 277 277 276 276 275 275 275 275 274 274 274 274 274 275 274 276 277 276 276 275 276 276 278 278 278 277 279 279 279 280 281 281 282 282 282 282 283 283 284 284 284 284 285 284 283 284
285 285 285 284 284 284 285 285 285 285 285 284 284 284 283 283 283 282 282 282 281 281 281 281 281 280 280 280 280 279 279 279 279 278 278 277 277 277 277 276 276 275 274 274 274 273 273 273 272 273 273 274 274 275 276 276 275 275 276 276 275 276 276 277 277 277 278 279 279 279 280 281 281 281 281 281 281 282 282 282 282 282 282 282 283
285 285 285 285 284 283 284 284 284 285 284 284 284 284 283 283 283 282 282 282 281 280 280 280 280 280 280 280 280 279 279 280 281 280 279 279 277 275 275 275 274 274 273 273 272 272 272 272 272 273 273 273 274 274 274 274 274 275 277 276 275 275 276 276 277 278 279 278 279 279 279 280 279 278 278 278 278 279 279 280 281 280 281 281 282
285 285 285 284 284 284 283 283 284 284 284 284 285 285 285 283 282 282 282 281 281 280 280 280 279 279 279 279 279 280 280 280 281 281 281 281 280 278 276 275 274 273 272 271 272 272 272 271 272 273 272 272 274 275 274 276 277 277 276 275 274 275 275 275 277 278 280 279 278 277 278 279 277 276 277 276 278 279 279 279 279 279 280 282 283
284 284 284 284 284 284 283 283 283 283 284 284 286 287 287 286 283 282 281 281 281 280 280 280 279 279 278 279 279 279 280 280 280 281 281 281 281 280 279 278 277 274 272 271 271 272 271 271 272 273 273 273 274 275 275 276 277 276 275 275 275 275 274 273 273 277 280 278 277 275 274 277 276 274 275 276 277 277 278 278 279 280 281 282 283
283 283 282 283 283 284 283 283 283 283 283 285 286 287 287 287 286 282 282 281 280 280 280 279 279 279 278 278 278 278 279 279 279 280 281 281 281 280 279 279 279 278 277 274 272 271 272 272 272 272 273 273 274 275 276 276 275 275 275 275 275 274 274 273 274 274 278 278 275 273 272 275 275 274 274 275 276 277 277 278 280 280 281 282 282
283 282 282 282 282 283 283 283 283 283 283 286 286 287 287 287 287 285 282 281 280 280 280 279 279 278 278 277 277 276 277 279 279 279 279 280 281 280 280 279 279 279 279 279 278 275 274 273 273 273 274 275 275 276 277 276 277 274 275 274 275 275 275 275 275 275 276 277 273 271 270 273 274 274 274 275 276 276 276 278 279 280 281 282 282
282 282 282 282 282 282 282 282 282 283 283 285 286 287 287 287 288 286 282 281 280 280 279 279 279 278 277 277 276 275 276 278 278 278 278 279 279 278 278 277 277 278 279 280 279 278 277 275 275 274 276 277 276 277 277 277 275 274 274 274 275 275 275 274 275 274 275 275 272 271 269 271 274 273 272 274 276 275 276 277 278 280 280 281 281
281 282 282 281 281 281 282 282 282 282 282 285 286 286 287 287 288 287 283 281 280 280 280 279 279 278 277 277 276 275 276 277 277 277 277 277 277 276 276 276 276 277 278 278 278 277 277 276 277 276 277 278 277 278 277 277 277 277 277 276 276 274 273 273 272 273 272 274 273 271 267 271 273 271 272 273 275 274 276 277 278 279 279 280 280
280 280 280 280 280 281 281 281 281 281 281 284 285 286 287 287 288 286 284 281 280 279 279 279 278 278 277 276 276 275 275 276 278 280 279 278 276 275 275 275 275 276 277 279 280 280 279 278 278 278 278 278 279 278 277 277 277 278 276 274 273 271 269 269 268 270 269 272 273 271 268 269 272 271 271 274 274 274 275 275 277 277 278 279 280
279 279 279 280 280 280 280 280 280 280 280 283 285 285 286 287 287 285 284 281 280 279 278 278 278 277 276 276 275 275 275 275 278 281 281 280 276 275 274 274 275 275 276 279 281 282 282 281 281 281 280 280 280 280 280 281 279 277 273 272 271 269 268 266 267 267 268 271 271 271 269 268 271 271 270 273 273 272 273 274 275 276 277 277 278
278 278 279 279 279 279 279 279 279 279 280 281 283 285 286 286 286 284 283 282 279 278 278 278 277 277 276 277 276 275 275 275 279 281 282 279 275 275 274 274 274 274 275 277 278 280 282 281 280 280 280 279 280 281 282 281 281 278 272 270 269 268 267 266 265 267 267 268 270 272 268 268 270 271 270 270 271 272 273 274 274 275 275 275 276
278 278 278 278 278 278 278 279 280 280 279 280 283 284 285 286 286 285 283 281 279 278 277 276 276 276 275 276 277 277 276 276 280 282 282 280 275 275 275 274 273 273 274 275 275 276 277 277 277 277 278 279 278 275 276 276 275 274 272 270 269 268 266 266 265 265 265 267 270 272 268 268 269 270 269 266 266 270 272 273 273 273 273 273 274
Wind_Speed
7 6 5 5 4 4 4 4 4 4 4 4 4 5 4 4 4 4 4 4 4 4 4 4 3 3 3 4 3 3 2 2 2 2 2 1 1 3 6 7 7 8 8 9 9 9 8 8 8 7 7 7 7 10 10 9 8 7 9 12 12 11 10 10 13 13 13 13 13 14 14 14 14 14 14 15 15 15 15 16 16 16 17 17 17
7 6 6 6 5 5 4 4 4 4 4 5 4 3 5 4 4 4 4 4 4 3 3 4 3 3 2 3 3 2 2 2 2 2 1 1 2 2 6 7 8 8 9 10 10 10 10 9 8 8 8 6 8 10 9 8 7 8 10 11 12 11 9 11 12 12 12 12 13 13 13 13 13 14 14 14 15 15 15 15 16 17 17 17 17
7 7 6 6 5 5 5 4 4 4 4 4 3 4 3 4 4 4 4 4 4 3 3 4 3 3 2 2 3 2 2 2 2 2 2 2 2 2 3 7 8 8 9 10 11 11 11 11 11 9 8 8 8 9 8 8 8 10 10 11 11 10 9 11 11 11 11 12 12 12 12 13 12 13 14 14 15 15 15 15 15 15 16 16 16
8 8 7 7 6 6 5 6 5 4 4 4 5 4 4 4 3 2 3 3 4 3 2 3 3 3 3 3 2 2 2 2 2 2 2 2 2 2 3 3 8 9 10 11 11 12 12 12 12 11 11 10 10 9 8 9 9 9 9 9 10 9 9 10 11 11 11 11 11 12 12 12 12 12 13 14 15 15 15 15 15 15 16 16 16
8 9 8 7 7 7 6 6 5 4 4 5 6 5 4 4 4 3 3 3 3 3 2 2 3 3 2 2 2 3 2 2 3 3 3 2 2 2 2 3 4 8 12 12 12 12 13 13 12 12 12 11 11 10 10 10 10 9 8 9 9 9 9 8 10 10 10 10 11 12 12 12 12 13 14 14 15 16 15 15 16 16 15 16 16
8 8 7 7 7 7 7 6 5 6 5 5 5 4 4 4 4 4 3 3 4 4 4 3 2 2 2 2 2 2 2 3 3 3 2 3 2 2 2 3 3 4 5 11 13 13 13 12 12 12 12 12 12 12 11 10 10 8 8 7 8 8 8 8 9 9 9 9 11 11 12 12 13 13 14 14 15 14 14 15 15 16 15 15 16
8 8 8 7 7 7 7 6 6 6 5 4 5 4 4 5 5 5 3 2 2 3 2 3 3 3 3 2 3 2 2 3 3 3 3 3 2 3 3 3 4 4 4 5 9 14 13 13 13 12 12 12 12 11 11 11 9 8 8 8 8 9 9 8 8 8 9 10 11 12 13 13 13 13 13 13 13 13 14 14 14 15 15 16 16
9 9 8 8 8 8 7 6 7 6 5 5 5 6 5 4 4 4 6 4 4 3 2 3 3 4 3 3 3 3 3 3 3 3 2 2 3 3 3 4 4 4 4 5 5 9 14 13 13 13 13 12 12 11 11 10 10 9 8 9 9 9 9 8 9 10 10 11 12 13 13 13 13 13 13 13 12 13 13 13 13 14 14 15 15
10 9 8 9 8 7 7 8 7 7 6 5 5 4 5 5 4 4 2 4 4 5 3 3 4 4 3 4 3 3 3 3 3 3 2 4 4 3 4 4 4 4 5 5 4 5 10 13 13 14 14 13 13 12 12 11 10 9 10 9 8 9 8 10 10 11 11 12 13 13 13 13 13 12 12 12 12 12 12 13 13 13 14 14 14
10 10 8 8 8 7 7 8 7 7 6 6 5 5 4 5 6 3 3 3 4 5 5 4 4 4 4 4 3 3 3 3 4 3 3 4 3 4 4 3 4 4 4 4 4 5 4 8 11 12 14 13 13 12 12 12 11 10 9 8 8 9 9 9 9 10 12 13 13 13 13 12 12 11 11 12 12 12 12 12 13 13 13 13 14
10 10 9 9 8 7 8 9 7 7 7 6 6 6 5 5 5 4 2 2 2 3 5 5 5 4 4 4 4 4 4 4 3 4 3 3 4 3 2 3 4 4 4 4 4 4 5 4 4 5 7 14 13 13 12 12 12 10 9 8 8 8 9 9 10 11 12 13 12 12 12 12 11 11 11 11 12 12 12 12 13 13 13 14 14
10 10 9 8 8 8 8 8 8 8 8 8 8 8 10 9 7 6 6 3 2 3 5 7 6 6 5 4 3 3 4 3 4 4 3 3 3 2 3 3 3 4 4 3 4 4 4 4 4 4 4 8 13 12 13 12 12 11 10 8 8 8 9 10 11 12 12 12 11 11 11 11 11 11 11 12 12 13 13 13 13 14 14 14 15
10 10 9 9 8 7 8 8 8 9 9 10 9 8 7 7 6 4 6 6 3 3 4 4 8 5 4 4 3 2 2 2 3 3 3 3 2 3 2 3 3 3 3 3 4 4 4 5 4 4 5 4 6 10 12 11 12 11 11 10 9 9 10 11 11 11 11 12 11 11 11 11 11 11 12 12 12 13 13 13 13 13 14 14 14
10 10 9 10 10 9 9 10 9 8 7 6 7 7 8 7 7 5 2 4 4 6 5 5 1 4 5 4 2 1 0 1 1 2 1 2 2 3 3 3 4 3 2 4 5 5 5 4 4 4 4 4 5 5 5 6 8 12 12 12 10 9 10 10 10 11 12 11 11 10 10 11 11 11 12 12 12 12 12 12 12 12 13 13 13
10 10 10 10 10 10 10 9 9 9 9 9 9 10 8 10 10 8 6 0 1 2 6 3 4 2 2 5 3 3 2 2 1 1 1 1 1 3 2 3 3 3 3 4 4 4 4 4 5 5 4 4 4 4 4 5 6 10 12 12 13 12 12 11 11 11 11 11 10 10 10 10 11 11 11 12 12 12 12 12 12 12 13 13 13
10 10 8 9 11 11 10 10 10 10 10 10 10 10 9 8 8 7 7 6 4 5 3 4 2 7 4 1 2 1 2 6 6 2 1 1 1 2 2 2 3 3 3 4 4 3 3 4 5 4 4 4 3 3 4 4 5 6 8 8 12 14 14 13 12 11 11 11 10 10 9 10 10 10 10 11 12 11 11 12 12 13 13 13 14
9 11 11 11 10 10 10 10 10 10 9 9 10 11 11 10 10 8 11 9 8 3 4 3 6 3 2 5 2 1 3 2 3 2 1 2 1 1 2 1 2 2 3 3 2 3 3 4 4 4 3 3 3 3 3 3 3 4 5 6 11 14 15 14 13 12 12 12 11 10 10 10 10 10 10 10 11 11 11 11 12 12 13 13 13
9 10 10 9 10 10 10 10 10 10 9 9 8 8 10 10 11 9 11 6 8 6 5 3 1 1 3 3 1 2 4 2 2 3 1 1 1 1 1 1 1 1 1 2 2 2 3 3 3 3 3 2 2 2 2 3 3 3 4 7 12 14 14 14 14 14 14 14 13 12 11 10 10 10 10 11 11 11 12 12 12 12 13 13 14
10 10 10 10 9 10 10 10 9 9 8 8 9 11 10 10 8 8 9 5 6 9 10 7 2 2 1 0 1 1 1 6 4 3 2 2 3 3 3 1 1 2 1 0 1 1 1 2 2 2 2 1 2 2 2 3 4 4 7 10 12 14 15 15 14 14 15 15 13 13 12 11 11 12 12 12 12 12 12 12 12 12 13 13 14
9 10 9 9 9 9 9 9 9 9 9 9 9 9 7 6 8 7 5 5 7 8 10 7 10 5 3 2 2 2 4 5 3 5 3 4 3 1 2 2 2 3 2 1 1 1 1 1 2 2 1 1 2 2 2 3 3 4 5 10 11 13 14 14 13 13 13 14 13 13 13 12 12 13 13 13 13 12 12 12 12 13 13 13 13
9 9 10 10 9 9 9 9 9 9 9 8 8 8 11 11 10 9 9 7 7 5 6 8 8 7 7 1 2 3 3 3 2 3 3 4 2 3 3 1 2 3 2 0 0 0 1 1 2 1 0 1 2 2 2 3 3 4 6 9 10 12 13 13 12 12 12 12 12 13 13 13 13 14 14 14 13 13 12 13 13 13 13 13 13
9 9 9 10 10 10 10 11 10 10 9 10 9 10 9 10 10 10 9 9 6 6 7 6 7 5 7 7 5 3 2 2 1 3 3 1 3 5 4 6 5 3 1 1 0 1 1 1 1 0 0 1 2 2 3 4 3 3 5 8 9 11 12 13 13 12 11 11 12 12 13 13 14 15 15 14 14 13 13 13 13 14 14 14 14
7 7 9 10 10 10 10 10 9 10 10 10 11 11 10 10 9 10 10 11 8 7 6 5 5 5 7 8 10 10 11 8 8 5 5 4 2 3 2 4 2 2 1 1 0 1 3 2 1 1 1 1 2 3 4 4 4 5 8 8 9 10 12 13 13 12 12 12 13 13 13 14 14 15 15 15 15 15 14 14 14 14 14 14 13
6 6 8 9 8 8 10 9 10 10 11 9 9 10 9 8 9 9 9 10 7 7 6 7 9 6 7 7 7 7 5 6 8 7 9 6 6 4 4 2 2 3 0 2 2 3 3 2 1 1 2 2 3 4 4 4 4 7 4 8 9 11 12 14 14 12 12 12 12 12 13 14 14 14 14 15 15 15 15 14 14 14 14 14 14
9 9 9 11 9 9 10 10 9 9 9 9 10 10 9 9 9 10 10 11 10 10 9 10 10 10 9 7 4 5 6 2 5 7 3 3 6 4 1 1 1 1 1 0 1 1 2 2 1 1 2 3 4 4 4 3 3 5 5 5 8 9 10 12 12 11 10 11 12 12 12 13 14 14 14 15 15 15 15 14 14 14 14 14 14
10 12 10 10 9 10 9 8 9 9 9 10 9 10 10 9 10 10 12 10 9 11 10 11 8 9 5 7 7 6 5 4 5 6 8 7 5 7 5 2 1 1 1 0 1 1 1 1 0 1 2 4 4 4 4 3 3 5 5 3 5 8 10 12 12 11 11 11 11 12 12 12 13 13 14 15 15 15 14 14 14 14 14 14 14
9 8 7 10 11 9 11 11 10 10 10 10 9 9 9 8 9 10 8 8 10 9 9 10 9 10 9 8 7 5 5 5 6 7 7 8 8 7 8 6 2 1 2 0 1 4 1 2 1 1 3 4 4 4 4 3 2 4 4 3 3 6 10 12 11 11 11 12 12 12 12 12 13 14 14 14 15 14 14 14 14 14 14 14 15
6 7 9 9 10 10 10 10 10 10 10 11 10 10 10 10 9 9 11 8 10 12 10 10 10 11 10 7 6 7 5 6 6 5 6 5 5 6 8 7 6 2 1 2 3 5 5 5 2 1 3 4 4 4 4 3 2 2 2 2 3 4 9 12 12 12 13 13 12 12 13 13 13 14 14 14 14 14 14 14 13 13 14 14 15
6 7 8 9 9 10 9 9 9 10 10 10 10 10 10 11 10 10 11 10 10 11 9 10 9 9 8 10 8 7 6 5 5 5 5 4 3 4 6 8 6 3 3 4 5 6 5 6 5 3 3 4 4 3 3 2 1 2 2 3 4 5 9 12 13 14 14 14 13 13 13 13 13 13 13 13 13 14 14 14 14 14 15 16 17
9 9 10 10 10 11 10 10 9 9 10 8 9 10 9 9 9 10 9 9 10 8 9 9 9 8 8 7 7 7 6 7 6 5 5 5 5 5 4 1 3 7 5 4 3 5 4 5 2 3 4 5 3 3 2 1 1 2 2 3 4 5 10 12 13 14 14 13 13 13 12 11 11 11 12 12 13 13 14 14 14 15 15 16 17
9 9 10 9 10 12 11 10 8 10 8 9 8 8 9 9 9 9 9 10 10 10 9 9 9 9 10 10 8 7 7 8 6 6 5 6 6 5 4 4 3 3 4 3 2 3 3 8 4 2 5 6 2 1 1 1 1 2 2 3 4 7 10 9 12 12 13 12 12 11 10 10 10 11 11 12 13 13 14 14 14 15 15 16 16
9 9 11 12 12 12 11 11 10 9 10 9 9 9 8 10 9 9 10 11 11 11 10 9 8 9 10 11 10 8 8 7 7 6 7 6 6 6 6 5 4 4 4 5 7 4 3 3 6 4 4 5 3 2 2 2 3 6 4 3 4 7 6 6 11 12 12 12 11 11 11 11 11 12 13 14 14 14 14 14 15 15 15 15 15
8 9 10 11 11 12 11 13 12 11 11 11 9 9 10 10 10 10 9 12 13 11 10 11 9 10 11 11 10 9 9 9 8 7 7 7 6 5 5 5 5 5 7 7 7 5 2 2 5 6 4 3 3 5 3 3 4 4 5 4 5 5 6 6 6 9 11 11 11 12 12 11 12 13 14 15 15 15 16 16 16 15 15 16 16
9 10 11 10 11 11 11 11 11 10 10 11 10 10 11 12 11 10 11 12 13 12 11 12 12 9 9 11 10 10 10 10 9 10 9 9 8 8 8 8 7 7 7 7 7 6 7 6 5 4 4 4 4 5 3 3 3 3 4 4 4 5 5 5 5 5 9 11 12 12 12 12 13 14 15 15 15 15 16 16 16 17 17 18 18
9 9 10 11 11 11 11 10 11 10 11 10 10 11 12 13 12 11 11 11 12 13 13 13 13 10 11 11 12 10 8 10 10 9 9 10 9 9 9 8 8 8 7 6 5 6 8 7 6 5 5 4 4 4 2 3 3 4 5 5 4 4 4 5 6 5 8 11 12 13 13 13 14 15 15 15 15 15 15 16 17 17 18 18 18
9 8 11 11 10 12 11 11 10 11 11 11 11 11 12 12 13 13 11 10 11 13 12 12 13 13 14 12 12 12 12 12 11 10 10 10 10 9 9 8 8 8 7 7 5 3 5 7 6 6 5 4 3 2 2 3 4 5 5 6 5 5 5 5 5 5 6 12 13 13 13 13 14 15 15 15 15 15 17 17 17 18 18 18 18
10 8 9 9 10 10 11 11 12 12 12 12 12 12 12 13 14 16 15 13 11 12 11 11 11 14 13 14 13 13 14 13 11 11 11 14 11 10 11 9 9 8 6 7 7 5 5 7 6 4 5 3 2 2 2 2 4 4 5 6 6 7 7 7 6 5 9 13 14 14 14 14 14 15 15 14 16 17 18 18 19 19 19 20 20
10 10 10 10 12 13 12 14 14 13 12 12 14 16 16 16 15 15 15 15 13 11 11 11 12 13 14 14 13 14 14 16 14 13 13 15 12 12 12 10 9 8 9 8 7 7 6 5 6 5 5 4 3 3 3 4 4 4 4 5 6 6 7 8 7 6 5 6 6 6 9 11 12 14 14 15 17 19 20 20 20 20 21 21 22
10 10 10 11 11 12 14 13 14 14 14 15 16 16 15 15 15 13 15 14 13 11 12 11 10 11 12 12 13 15 16 16 15 16 15 14 12 15 14 13 11 11 10 9 9 8 7 6 4 4 4 3 4 3 3 4 5 5 4 4 5 4 4 6 9 8 6 7 10 14 13 11 12 11 13 16 19 20 20 19 19 19 20 20 21
10 11 11 12 12 12 13 12 13 12 13 14 15 12 11 11 12 14 16 15 11 11 11 11 11 12 13 13 12 14 16 16 16 15 16 16 12 13 11 11 12 12 11 10 9 9 8 7 5 5 4 4 3 4 2 3 5 6 6 5 5 4 3 4 6 8 8 7 8 7 8 9 8 10 13 16 19 20 19 18 17 18 19 19 20
8 10 10 10 11 12 11 12 12 12 13 14 12 11 11 13 14 16 16 15 11 11 11 10 11 11 11 11 11 12 15 15 15 15 17 15 13 11 11 12 12 11 9 8 8 8 7 6 5 5 5 5 6 6 7 8 9 7 6 6 5 5 5 6 7 9 9 8 7 6 6 5 6 8 8 9 10 13 13 15 14 17 17 17 18
8 9 9 10 11 12 11 12 12 11 13 11 14 19 16 15 15 14 13 15 14 13 13 11 11 11 11 11 10 12 14 16 17 20 22 22 20 14 15 15 13 12 10 9 9 9 8 9 8 8 7 7 8 9 9 9 8 7 6 6 6 5 5 7 8 8 7 7 5 6 7 6 6 8 8 10 9 9 8 8 8 11 14 18 19
7 8 9 10 10 10 12 12 13 13 12 11 16 18 22 22 15 15 14 14 14 15 15 16 12 12 11 11 10 13 15 15 15 19 22 23 22 19 19 20 20 18 16 11 9 10 10 8 8 8 8 8 9 9 9 9 9 8 7 6 6 5 6 6 6 4 5 5 4 5 8 8 7 8 7 9 9 8 8 8 13 17 18 18 19
7 5 8 10 10 10 10 11 13 13 13 13 17 20 22 24 20 14 13 13 13 15 15 15 10 9 11 11 9 9 11 14 12 14 18 21 21 20 21 23 22 20 18 16 15 10 10 10 10 10 9 9 9 10 10 11 10 8 8 7 7 7 7 8 7 6 3 1 4 6 9 8 7 8 8 9 8 7 8 11 17 18 18 18 18
7 7 9 9 10 10 11 12 13 13 13 12 17 20 22 23 24 19 13 13 13 14 15 16 12 10 10 10 9 9 9 19 14 12 13 15 19 21 20 21 22 21 19 17 17 14 13 9 9 11 11 10 10 11 11 10 9 8 8 8 9 8 8 8 8 8 7 3 5 7 8 7 6 7 7 8 8 7 8 12 17 18 17 17 17
8 8 8 9 9 10 11 12 12 12 13 11 17 20 21 23 24 21 14 14 14 14 16 16 11 11 12 11 11 10 10 13 11 13 13 12 14 14 14 13 12 16 18 18 17 15 13 11 10 11 10 10 9 9 10 10 10 9 9 9 8 8 8 8 8 8 8 4 7 7 7 6 6 5 9 9 7 7 8 12 16 16 15 17 18
8 9 9 9 9 9 9 10 11 12 11 13 17 20 21 23 25 21 15 14 13 13 12 11 11 10 11 11 11 10 10 11 12 15 13 15 14 13 13 13 11 12 13 13 13 12 11 8 9 8 9 10 9 9 9 9 10 8 8 7 6 4 3 3 5 6 6 6 6 5 5 3 4 8 9 8 7 7 7 10 14 15 15 15 15
7 7 8 8 10 11 10 10 10 12 11 13 17 19 22 23 25 16 13 14 14 13 13 13 11 8 9 10 10 13 13 9 17 25 20 13 15 16 16 13 11 10 11 12 14 12 10 9 9 9 9 10 12 9 9 8 8 6 4 5 4 3 2 2 5 3 4 4 5 6 7 6 5 7 8 7 8 7 6 7 10 12 12 13 13
8 8 8 8 8 9 10 10 10 11 11 12 17 19 21 24 19 13 12 12 12 13 13 13 11 9 8 10 10 9 12 11 19 25 25 20 14 16 14 14 12 10 8 10 16 18 17 16 14 15 14 14 15 16 15 16 10 7 4 3 4 2 1 3 4 3 5 3 4 6 5 6 5 7 10 6 7 10 8 6 5 6 9 9 14
9 9 8 8 9 9 10 11 11 11 11 10 16 19 21 23 19 14 11 12 13 13 12 11 6 5 8 17 15 13 11 11 22 26 27 20 15 15 15 15 15 12 11 8 8 11 19 17 15 15 15 14 14 17 17 15 12 7 4 5 2 3 4 4 4 3 5 5 4 2 2 5 6 6 10 9 8 6 4 4 2 3 7 11 15
9 9 8 8 9 8 9 11 10 12 11 10 14 18 21 23 19 13 12 11 12 12 9 5 5 4 7 13 21 17 13 15 25 26 28 21 15 16 15 15 13 14 12 10 10 10 11 10 11 12 11 14 7 4 5 6 4 3 2 3 3 3 5 4 3 2 3 3 4 2 3 4 5 6 7 11 4 2 5 2 2 6 9 10 9
Wind_Direction
169 172 158 168 153 156 158 154 150 147 151 150 150 140 132 136 132 127 124 123 120 115 112 108 110 108 112 115 112 104 101 100 88 72 74 75 49 34 40 54 66 66 72 75 78 75 78 77 81 83 77 67 74 71 61 57 59 62 67 60 53 50 47 48 51 49 49 48 43 41 39 39 37 33 32 31 29 29 29 29 28 27 26 24 22
167 163 169 164 161 156 160 161 160 156 159 153 157 144 140 139 132 129 132 131 124 123 126 115 106 107 103 109 104 103 102 101 100 93 91 74 55 58 36 54 66 71 78 81 80 78 75 77 84 83 75 75 79 70 62 62 67 69 65 58 53 49 47 50 47 49 52 50 47 44 41 40 39 37 36 33 31 30 28 26 25 25 24 23 21
166 164 172 164 164 164 167 157 159 165 163 143 139 141 136 138 145 144 145 138 127 128 125 116 113 111 115 115 115 118 109 104 105 105 87 71 68 53 36 45 57 61 75 82 84 79 76 75 75 78 74 70 74 71 66 68 71 69 63 54 52 49 50 48 44 44 44 47 47 43 42 41 38 39 38 36 35 31 29 27 26 23 22 21 20
167 167 171 167 168 168 161 167 165 157 159 145 138 136 131 120 111 104 111 122 124 127 123 124 126 127 135 128 131 123 119 117 110 98 86 79 75 62 59 44 49 53 56 71 78 77 76 72 70 66 62 63 61 66 70 68 68 72 63 55 50 51 51 52 47 42 45 46 45 44 42 41 41 39 39 38 35 32 30 28 26 23 21 20 19
174 169 169 171 165 162 165 171 161 157 148 143 132 129 125 126 116 119 118 120 127 129 130 130 126 129 133 122 127 114 114 115 106 99 92 85 74 71 65 56 58 50 48 52 66 71 70 67 64 62 60 59 59 67 66 64 64 67 63 55 51 50 49 53 50 47 43 42 46 46 44 42 41 41 39 36 34 32 31 29 27 24 21 19 16
167 167 167 167 170 173 164 163 161 156 147 148 145 145 135 135 135 141 149 159 155 148 150 138 117 116 110 114 99 100 111 103 93 87 91 85 78 73 73 69 65 64 54 50 53 64 64 64 64 63 62 60 59 62 59 60 60 60 58 57 56 54 52 50 47 43 43 45 48 47 47 44 42 40 39 36 34 31 29 27 26 24 21 18 16
172 165 169 170 170 170 171 164 154 156 152 155 143 138 137 146 151 154 154 165 156 151 163 135 134 122 112 119 108 109 101 99 93 85 80 85 83 78 73 75 75 74 65 68 55 53 57 59 59 59 59 59 58 55 55 55 58 59 63 60 61 57 54 49 43 46 47 47 48 47 45 42 40 36 35 33 30 28 27 26 23 21 19 17 15
172 171 167 175 175 173 169 153 158 153 150 144 144 150 152 147 165 164 156 172 162 145 164 130 126 112 108 103 108 112 108 103 98 94 81 93 86 81 78 77 70 72 65 66 64 56 50 53 53 49 52 53 52 50 50 49 50 57 59 62 58 56 50 48 47 47 47 47 46 44 41 39 36 36 32 30 28 27 24 23 21 20 17 15 13
177 174 169 172 178 172 162 159 156 155 150 148 153 152 154 156 169 198 239 165 169 145 139 130 113 102 99 96 93 109 100 101 103 104 106 88 88 84 81 73 75 74 73 73 65 60 49 49 49 44 42 47 48 50 46 40 42 50 54 53 58 55 48 48 47 46 47 46 43 42 41 39 36 35 33 30 29 24 22 21 20 17 16 14 12
174 174 175 176 175 167 156 159 156 150 146 153 157 150 156 167 168 194 196 190 169 158 143 127 113 104 93 88 95 92 96 98 102 101 104 98 89 84 82 87 82 78 77 75 70 62 58 51 50 46 40 43 47 50 47 40 39 44 49 57 57 59 53 51 51 48 47 45 42 40 39 37 35 32 30 29 27 25 22 21 18 17 14 11 8
175 174 175 172 169 167 163 159 155 151 148 156 157 164 165 175 179 164 179 238 178 155 144 131 110 94 86 81 87 88 98 98 104 102 95 96 101 101 98 84 88 81 83 78 73 68 61 56 53 49 42 41 45 47 48 42 39 46 45 56 59 62 59 56 52 47 43 42 40 39 37 37 32 31 28 27 25 21 21 17 15 14 10 10 7
177 175 173 169 169 167 160 158 159 155 159 164 174 178 176 172 184 169 157 133 91 136 145 124 93 84 83 79 68 87 89 93 93 96 105 109 114 122 100 97 87 86 79 79 77 72 68 65 62 59 51 43 45 46 47 41 36 48 46 54 64 66 63 54 49 45 42 39 37 37 34 33 30 29 28 25 22 19 16 14 13 9 7 6 3
179 174 176 170 167 156 157 167 164 167 172 183 173 169 169 170 152 170 163 153 157 173 180 144 126 89 75 78 83 43 83 65 74 83 97 116 127 124 119 110 98 92 84 78 76 68 66 62 64 62 54 50 45 44 45 38 34 45 47 52 63 63 56 48 47 48 44 39 35 35 32 28 24 23 20 18 15 13 11 8 5 3 1 359 357
177 177 172 168 164 167 170 171 170 175 173 152 157 165 162 163 162 159 254 188 162 180 183 158 130 156 151 142 91 115 120 333 13 44 75 111 131 127 128 112 100 100 99 83 71 66 62 61 58 57 54 50 45 47 38 33 32 29 44 50 57 57 53 50 45 44 43 36 30 30 26 22 20 17 14 14 11 9 7 6 3 0 357 354 352
176 177 174 174 170 168 176 169 174 163 163 170 169 175 176 174 181 175 158 155 106 164 201 254 131 104 95 123 161 162 188 242 220 275 348 149 118 116 119 112 106 95 100 87 76 70 66 61 57 53 51 47 46 45 49 39 24 18 26 31 44 48 47 43 38 34 33 29 25 23 23 21 16 13 13 10 7 6 4 2 359 358 356 351 349
176 174 176 178 175 177 170 173 176 177 172 166 174 178 173 179 187 201 169 147 192 187 220 203 200 150 166 263 118 224 187 213 194 143 351 279 143 113 118 123 126 114 108 83 82 80 74 66 54 51 48 50 47 44 52 48 13 13 7 4 42 35 26 25 26 26 24 24 22 18 19 17 12 13 12 10 7 5 2 0 359 359 354 351 350
177 183 183 181 179 177 174 175 174 176 174 175 178 184 181 183 182 177 192 174 166 180 189 179 230 311 134 131 109 229 237 74 124 182 148 183 211 29 50 44 104 90 87 92 98 87 85 75 57 51 47 52 49 48 59 50 45 29 17 17 46 32 21 17 19 19 17 15 13 10 11 10 8 8 9 7 6 3 359 360 0 357 354 352 350
186 185 187 180 181 179 174 172 177 177 183 181 174 167 184 186 192 190 192 226 163 149 168 194 263 204 263 339 324 189 158 169 177 193 136 272 281 244 297 319 350 55 68 77 67 73 70 78 57 45 46 48 55 59 62 64 47 44 38 45 38 29 23 16 10 6 4 5 4 3 6 7 7 8 7 4 3 360 357 357 355 355 353 350 347
187 188 189 186 179 179 178 180 178 177 175 172 178 187 183 190 176 195 203 164 152 172 180 172 136 219 188 191 105 4 116 138 195 87 200 162 221 222 211 190 241 281 253 32 65 38 64 55 48 40 53 54 64 63 71 65 52 39 30 47 32 25 19 11 5 359 358 357 358 358 359 360 3 3 2 1 358 356 356 354 352 352 350 348 347
184 187 190 188 185 181 179 174 176 180 176 186 184 180 177 182 190 199 183 193 197 188 171 169 178 168 151 144 82 81 53 46 64 165 141 170 196 167 247 224 249 238 267 276 286 310 345 30 13 21 57 81 68 73 74 74 70 59 52 41 32 20 14 7 0 356 354 352 354 354 353 355 356 356 357 355 353 353 352 350 350 349 348 347 345
188 182 187 186 186 183 178 178 178 178 183 186 185 177 183 176 179 187 198 197 204 214 162 185 203 166 148 111 93 63 53 51 86 54 153 180 182 183 195 126 237 224 231 215 137 216 308 329 350 351 344 87 85 87 93 96 92 76 56 42 27 16 8 1 355 352 349 348 350 349 349 350 350 350 350 349 350 348 349 349 348 347 346 344 342
189 187 184 187 184 181 183 184 183 178 183 187 176 178 181 186 189 192 192 197 196 208 201 190 199 169 183 145 147 129 72 89 62 113 44 16 180 190 191 179 195 180 194 193 19 262 279 296 310 294 188 105 95 107 106 112 103 84 61 41 23 11 0 355 351 348 344 344 347 346 346 346 346 345 345 344 345 344 346 345 345 344 343 342 342
188 191 193 187 189 186 183 187 184 184 184 182 188 182 182 184 183 186 193 195 195 194 206 192 189 177 184 180 171 174 171 175 181 186 167 155 140 240 194 207 192 167 191 343 13 295 283 282 237 179 147 124 124 121 126 116 107 86 62 33 19 5 357 353 348 345 339 341 345 344 342 343 343 342 341 341 340 339 340 341 342 340 339 338 339
188 194 200 193 192 190 191 187 190 186 190 187 181 184 179 178 181 187 192 196 189 186 197 182 182 188 198 199 195 187 171 174 175 164 173 186 173 174 180 133 235 220 67 295 286 278 275 254 215 186 144 137 140 134 128 127 105 94 68 35 13 3 354 349 344 340 336 341 341 340 340 340 340 338 338 339 336 336 337 338 336 337 336 336 336
194 195 196 192 190 188 192 194 191 195 189 182 187 180 178 183 184 186 190 190 191 186 189 192 181 184 191 197 192 190 187 136 148 166 163 117 155 127 156 70 225 110 114 172 312 320 279 260 201 172 161 153 140 146 137 129 128 89 79 32 14 358 349 343 338 335 335 336 337 336 337 338 336 336 336 335 335 335 334 333 335 335 335 334 333
190 201 187 183 188 199 194 196 198 193 191 191 183 186 181 185 184 187 193 196 183 191 195 184 191 203 179 178 195 190 178 159 162 156 159 150 170 173 141 144 38 275 77 342 34 287 164 257 139 154 153 145 145 140 138 121 112 84 59 26 0 350 344 340 337 333 332 332 333 333 335 336 334 334 335 335 333 331 329 330 331 333 332 330 329
204 201 185 188 196 191 196 195 193 191 187 187 192 184 183 184 191 195 195 188 189 183 194 182 186 191 189 193 185 188 178 172 174 181 169 180 162 159 152 155 184 193 262 144 325 245 221 169 92 176 154 144 145 141 134 126 95 63 40 11 345 343 338 333 328 324 324 327 328 330 334 334 335 336 336 333 328 325 326 327 329 331 330 328 326
207 196 200 192 197 201 199 202 196 194 192 192 185 182 181 185 188 190 197 176 187 187 193 186 193 190 188 180 177 198 178 178 190 175 183 177 161 156 168 166 165 205 177 245 210 241 202 197 161 177 161 157 144 138 122 113 91 33 41 342 338 328 330 329 324 323 327 327 328 331 332 335 335 334 332 327 322 320 321 324 326 325 322 320 319
212 206 199 199 199 201 202 202 201 200 198 197 193 187 182 190 189 186 194 181 187 193 186 191 192 179 185 183 190 180 181 176 183 182 170 162 165 171 181 180 181 182 175 212 213 197 188 205 196 151 161 158 152 146 148 147 60 359 346 347 339 327 326 326 323 325 324 326 329 329 330 332 332 329 324 320 317 315 318 321 322 321 320 320 319
196 192 196 199 204 203 205 205 204 200 203 197 199 195 188 198 191 194 191 171 189 191 195 189 185 179 181 182 188 186 175 179 183 168 169 166 159 170 182 160 167 196 192 207 192 180 156 190 223 163 168 168 158 163 161 199 151 317 345 338 322 317 320 317 316 314 315 318 319 318 321 325 324 320 316 315 312 312 315 318 321 322 321 319 318
202 195 193 190 192 199 204 207 201 205 201 203 198 200 194 197 193 195 183 182 188 192 188 185 185 177 181 186 185 187 168 179 169 170 169 167 169 166 170 157 178 192 175 201 213 173 178 177 187 211 165 166 164 154 238 268 313 309 298 300 298 303 300 295 291 295 298 301 303 307 315 318 315 314 313 309 307 310 313 316 318 320 319 317 317
209 199 200 200 199 198 197 196 198 201 200 199 195 199 195 206 194 195 188 182 191 193 188 188 178 186 181 188 186 181 171 170 173 171 171 173 165 171 171 174 172 174 172 190 228 155 195 167 149 149 151 160 155 177 212 248 236 234 255 257 270 271 271 268 266 271 281 290 301 310 317 319 318 315 310 309 308 309 312 315 316 314 313 312 313
202 205 204 204 201 202 199 204 200 191 190 194 192 193 199 204 204 201 185 190 192 196 180 187 187 184 189 186 183 181 165 174 174 167 173 170 167 174 173 173 177 176 178 189 197 144 143 155 144 159 155 168 207 175 194 219 210 210 224 253 259 259 258 256 257 258 276 294 307 314 315 315 313 310 309 311 311 312 316 316 314 312 310 311 312
200 209 207 204 205 202 203 206 203 202 200 195 187 193 201 202 204 202 200 192 197 192 184 187 185 186 180 183 180 176 178 177 171 177 171 170 175 173 183 182 182 181 192 181 199 169 159 165 168 163 173 189 207 168 186 227 238 230 254 255 254 255 270 278 283 288 292 304 313 314 312 309 308 307 307 308 309 312 312 311 310 310 312 312 312
210 211 208 207 204 204 207 206 203 202 199 197 195 196 201 202 204 205 203 196 197 191 190 191 183 175 179 188 184 172 167 178 181 178 172 178 176 180 181 182 183 186 188 207 170 189 162 165 167 173 187 193 213 182 221 241 260 263 270 256 255 260 261 278 286 286 292 309 312 312 310 308 306 304 303 305 307 308 306 305 305 307 310 312 313
217 213 214 210 207 208 210 207 202 202 199 201 199 204 207 205 207 208 205 203 204 205 198 185 180 182 186 179 183 174 174 176 177 177 182 179 180 181 177 183 185 184 189 188 216 182 169 150 172 180 176 178 201 235 263 290 295 297 294 294 287 282 283 279 281 288 295 307 309 309 307 303 300 299 300 303 305 305 304 304 306 308 310 312 313
227 219 216 209 212 209 210 207 203 205 203 199 202 204 204 208 212 213 210 207 207 209 202 194 186 185 182 189 177 171 174 178 176 181 179 180 179 178 182 180 183 180 175 190 190 183 171 177 155 169 170 198 208 243 261 282 293 290 291 290 295 301 304 300 297 284 299 308 308 304 298 294 293 293 296 302 306 305 306 310 312 315 316 317 316
233 225 219 215 215 216 215 215 212 211 206 205 209 210 208 208 210 212 212 210 210 208 205 201 193 191 190 188 177 177 178 181 183 180 175 180 177 179 179 179 175 171 179 183 184 182 186 184 169 166 177 185 199 213 212 221 242 267 278 286 290 293 301 307 305 311 309 308 310 299 286 282 282 288 298 307 309 310 312 313 314 315 315 315 315
235 229 224 224 222 223 223 218 218 214 210 211 213 212 211 209 209 208 210 210 207 206 210 205 198 195 195 190 184 183 185 186 177 178 176 175 177 182 181 175 171 170 176 179 179 178 182 177 183 184 177 189 195 215 201 212 234 239 257 275 289 286 290 297 305 310 305 294 284 277 275 279 287 295 302 305 303 302 303 304 305 306 306 306 306
237 234 231 227 228 224 226 221 221 216 215 216 215 210 206 202 205 210 210 211 205 207 206 202 200 198 198 195 193 190 190 188 184 179 172 177 173 177 177 167 170 170 174 172 172 176 175 179 181 177 179 182 195 213 227 212 225 232 223 227 243 265 271 274 269 281 285 273 269 264 261 266 276 290 299 299 295 294 294 295 293 292 293 299 301
243 240 239 235 233 231 229 227 224 218 220 219 214 207 205 208 210 213 211 210 205 208 208 206 203 201 200 200 198 195 197 197 190 180 182 171 162 168 172 168 170 170 165 166 168 165 167 165 172 177 182 193 196 184 198 205 209 207 186 194 230 249 264 263 254 243 247 251 245 244 253 260 291 294 293 285 278 280 281 280 284 285 290 294 296
254 247 245 239 236 235 232 230 227 224 225 224 219 211 204 207 207 211 211 212 209 207 210 208 208 203 199 197 200 193 197 196 192 189 187 186 187 178 167 169 170 167 170 164 170 171 166 170 179 174 181 200 194 193 196 205 201 195 189 203 222 229 229 252 263 251 233 228 232 246 263 277 284 283 273 267 269 269 270 275 272 278 283 287 291
259 252 244 247 242 238 236 233 230 229 230 229 220 212 211 207 203 209 210 212 209 211 212 211 209 200 198 195 189 189 192 194 196 191 187 188 186 188 183 177 172 169 169 171 173 169 169 171 171 177 189 191 194 191 197 195 196 193 198 203 209 214 219 225 240 239 207 172 254 279 278 273 262 264 259 256 258 258 261 261 270 278 284 288 291
276 261 256 250 249 245 242 240 238 236 236 231 221 218 214 211 205 207 210 213 208 211 211 211 207 199 196 191 189 184 185 184 178 188 191 191 187 184 181 183 185 186 181 166 162 169 174 165 177 190 181 193 184 187 195 194 194 192 200 205 208 210 216 223 236 242 185 55 289 280 278 273 252 254 254 250 250 253 257 267 276 280 284 285 286
300 282 262 253 251 248 243 245 244 241 242 226 221 219 216 213 209 203 214 211 211 213 212 212 207 199 194 191 188 190 187 183 180 180 177 184 187 184 181 183 189 189 192 193 178 167 166 163 173 185 190 178 182 197 196 189 183 192 195 207 211 213 218 225 235 256 265 285 282 273 270 264 254 247 250 257 258 261 260 262 267 273 277 284 291
293 282 273 261 255 248 245 245 247 246 242 235 225 222 217 214 211 205 214 211 214 215 213 211 204 196 191 189 186 187 182 182 178 177 174 171 175 176 178 181 184 192 194 192 186 177 171 175 178 186 183 178 187 190 188 184 192 194 202 208 213 210 209 227 252 264 274 269 264 279 271 256 225 258 266 262 251 254 252 254 265 274 284 290 297
291 286 282 277 263 253 249 245 249 249 245 235 228 225 220 215 213 208 212 214 216 218 215 211 206 196 191 190 189 184 174 180 181 176 170 177 174 175 177 179 178 185 188 190 187 182 181 180 182 175 176 183 190 186 188 196 202 207 215 215 184 176 202 259 268 254 269 254 248 248 255 218 272 273 266 268 264 258 256 255 264 281 286 290 293
276 272 273 266 268 264 256 251 250 253 249 234 230 227 222 218 213 212 213 213 217 218 217 214 208 195 190 185 184 189 188 184 187 185 182 172 173 174 177 177 178 181 190 194 189 185 179 177 184 184 186 186 179 191 202 203 205 206 146 125 125 131 154 257 268 279 264 250 235 246 262 265 267 272 275 275 275 273 268 263 266 274 287 292 298
284 279 273 265 262 262 259 252 248 251 251 238 234 228 223 220 213 215 214 214 218 219 219 214 209 202 187 183 179 180 187 186 187 187 185 176 176 177 173 174 177 179 186 186 190 189 189 190 186 185 180 184 195 206 210 207 201 158 126 180 221 138 191 247 264 257 260 277 262 242 256 277 289 305 296 279 279 280 275 253 251 256 270 289 303
290 276 269 272 263 256 254 253 245 250 249 234 232 232 226 220 213 213 213 214 217 219 219 211 205 198 189 190 188 188 184 183 187 188 186 178 177 177 172 172 176 182 184 169 177 192 194 191 187 190 200 202 201 212 216 215 215 169 123 214 181 144 220 213 228 234 287 289 271 184 212 273 316 317 307 297 272 236 223 248 249 281 290 291 293
265 275 272 265 264 253 247 246 243 243 250 238 228 233 229 224 219 216 213 212 216 217 209 193 192 183 189 193 194 193 188 183 188 189 187 182 182 181 178 173 178 183 180 157 169 171 182 187 197 199 203 208 202 119 128 149 122 101 133 188 198 203 224 220 211 221 274 257 196 38 345 304 340 318 349 329 320 194 210 133 345 308 300 301 298